Weather History for PHOG - June, 2013

Change the Weather History Date:

Sunday, June 23, 2013

  Actual Average Record
Temperature  
Mean Temperature 81 °F 78 °F  
Max Temperature 88 °F 87 °F 90 °F (1969)
Min Temperature 73 °F 70 °F 62 °F (1968)
Degree Days  
Heating Degree Days 0 0  
Month to date heating degree days 0 0  
Since 1 June heating degree days 0 0  
Since 1 July heating degree days 0 0  
Cooling Degree Days 16 13  
Month to date cooling degree days 343 293  
Year to date cooling degree days 1727 1552  
Since 1 June cooling degree days 343 293  
Growing Degree Days 30 (Base 50)    
Moisture  
Dew Point 70 °F    
Average Humidity 71    
Maximum Humidity 87    
Minimum Humidity 55    
Precipitation  
Precipitation T in 0.00 in 0.22 in (2014)
Month to date precipitation 0.24 0.14  
Year to date precipitation 7.23 9.64  
Snow  
Snow 0.00 in - - ()
Month to date snowfall 0.0  
Since 1 June snowfall 0.0  
Since 1 July snowfall 0.0  
Snow Depth 0.00 in    
Sea Level Pressure  
Sea Level Pressure 30.10 in    
Wind  
Wind Speed 19 mph (NE)    
Max Wind Speed 31 mph    
Max Gust Speed 38 mph    
Visibility 10 miles    
Events Rain    
T = Trace of Precipitation, MM = Missing Value Source: NWS Daily Summary

Daily Weather History Graph

Daily Weather History Graph

Search for Another Location

Airport or City:

Trip Planner

Search our weather history database for the weather conditions in past years. The results will help you decide how hot, cold, wet, or windy it might be!

Date:

Astronomy

Jun. 23, 2013 Rise Set
Actual Time 5:45 AM HST 7:10 PM HST
Civil Twilight 5:21 AM HST 7:34 PM HST
Nautical Twilight 4:51 AM HST 8:04 PM HST
Astronomical Twilight 4:21 AM HST 8:35 PM HST
Moon 7:43 PM HST (6/23) 6:07 AM HST (6/23)
Length of Visible Light 14h 13m
Length of Day
13h 24m
Full, 100% of the Moon is Illuminated
Jun 23
Full
Jun 29
Last Quarter
Jul 7
New
Jul 15
First Quarter
Jul 22
Full

Hourly Weather History & Observations

Time (HST) Temp. Heat Index Dew Point Humidity Pressure Visibility Wind Dir Wind Speed Gust Speed Precip Events Conditions
12:54 AM 73.9 °F - 70.0 °F 87% 30.12 in 9.0 mi NE 13.8 mph 24.2 mph 0.00 in Rain Light Rain
1:54 AM 73.9 °F - 68.0 °F 82% 30.10 in 10.0 mi NE 19.6 mph - 0.00 in   Partly Cloudy
2:54 AM 73.9 °F - 68.0 °F 82% 30.09 in 10.0 mi NE 15.0 mph - N/A   Clear
3:54 AM 75.0 °F - 69.1 °F 82% 30.08 in 10.0 mi NE 16.1 mph - N/A   Clear
4:54 AM 73.9 °F - 69.1 °F 85% 30.09 in 10.0 mi NE 13.8 mph - N/A   Partly Cloudy
5:54 AM 73.9 °F - 69.1 °F 85% 30.10 in 10.0 mi NE 13.8 mph - N/A   Partly Cloudy
6:54 AM 75.0 °F - 70.0 °F 84% 30.10 in 10.0 mi NE 17.3 mph - N/A   Scattered Clouds
7:54 AM 80.1 °F 83.2 °F 70.0 °F 71% 30.12 in 10.0 mi NE 18.4 mph 25.3 mph N/A   Partly Cloudy
8:54 AM 82.0 °F 85.9 °F 70.0 °F 67% 30.12 in 10.0 mi NE 19.6 mph 26.5 mph N/A   Scattered Clouds
9:54 AM 84.9 °F 89.4 °F 70.0 °F 61% 30.12 in 10.0 mi NE 20.7 mph - N/A   Scattered Clouds
10:54 AM 84.9 °F 88.8 °F 69.1 °F 59% 30.12 in 10.0 mi NE 23.0 mph 28.8 mph N/A   Scattered Clouds
11:54 AM 86.0 °F 89.4 °F 68.0 °F 55% 30.11 in 10.0 mi NE 21.9 mph 29.9 mph N/A   Partly Cloudy
12:54 PM 84.9 °F 90.1 °F 71.1 °F 63% 30.10 in 10.0 mi NE 25.3 mph 32.2 mph N/A   Scattered Clouds
1:54 PM 86.0 °F 90.7 °F 70.0 °F 59% 30.07 in 10.0 mi NE 27.6 mph 32.2 mph N/A   Partly Cloudy
2:54 PM 87.1 °F 92.0 °F 70.0 °F 57% 30.06 in 10.0 mi NE 27.6 mph 36.8 mph N/A   Scattered Clouds
3:54 PM 86.0 °F 90.7 °F 70.0 °F 59% 30.06 in 10.0 mi NE 23.0 mph 33.4 mph N/A   Partly Cloudy
4:54 PM 82.0 °F 85.9 °F 70.0 °F 67% 30.06 in 10.0 mi ENE 20.7 mph 29.9 mph N/A   Scattered Clouds
5:54 PM 79.0 °F - 69.1 °F 72% 30.06 in 10.0 mi ENE 19.6 mph 27.6 mph N/A   Clear
6:54 PM 77.0 °F - 70.0 °F 79% 30.09 in 10.0 mi NE 19.6 mph 26.5 mph N/A   Mostly Cloudy
7:54 PM 75.9 °F - 69.1 °F 79% 30.11 in 10.0 mi NE 15.0 mph - N/A   Scattered Clouds
8:54 PM 75.9 °F - 68.0 °F 76% 30.12 in 10.0 mi NE 15.0 mph 20.7 mph N/A   Mostly Cloudy
9:54 PM 73.9 °F - 70.0 °F 87% 30.15 in 10.0 mi NE 11.5 mph - 0.00 in   Clear
10:54 PM 73.0 °F - 72.0 °F 96% 30.14 in 6.0 mi NE 20.7 mph 25.3 mph 0.02 in Rain Light Rain
11:54 PM 73.0 °F - 71.1 °F 93% 30.14 in 10.0 mi NE 11.5 mph - 0.00 in   Partly Cloudy